Location: *
(42.5584°S, 105.8999°E)
Time: 01:45:24
(UTC+00:00)

Daily predictions for brighter satellites

Satellite Brightness Start Highest point End
(mag) Time Altitude Azimuth Time Altitude Azimuth Time Altitude Azimuth
COSMOS 2406 3.4 09:52:02 10° N 09:57:33 54° ENE 10:03:07 10° SSE
YAOGAN 6 3.9 09:58:17 10° S 10:01:41 41° WSW 10:05:01 10° NW
Cosmos 1833 Rocket 2.9 09:58:32 10° NNW 10:04:13 82° WSW 10:09:58 10° SSE
Cosmos 1992 Rocket 4.4 10:00:43 10° N 10:05:39 43° ENE 10:10:37 10° SSE
SeaSat 1 3.7 10:02:06 10° SSE 10:06:43 39° SW 10:11:17 10° WNW
Cosmos 1076 Rocket 3.7 10:03:46 10° N 10:08:02 54° E 10:12:19 10° SSE
CZ-2C R/B 4.2 10:06:15 10° N 10:11:34 43° W 10:16:53 10° SSW
Cosmos 2173 Rocket 4.1 10:08:02 10° S 10:14:20 56° ESE 10:20:28 10° NNE
Cosmos 2278 4.5 10:11:12 10° S 10:16:11 30° SE 10:21:08 10° ENE
Cosmos 2016 Rocket 4.5 10:11:14 10° S 10:17:03 38° ESE 10:22:54 10° NE
Cosmos 1812 3.6 10:14:42 10° SSE 10:18:09 29° ESE 10:21:31 10° NE
CZ-4B R/B 4.1 10:16:21 10° SSE 10:20:50 72° ENE 10:25:06 10° N
H-2A R/B 4.2 10:18:01 10° S 10:21:40 39° WSW 10:25:18 10° NW
Cosmos 1727 Rocket 4.2 10:16:25 10° NNW 10:22:40 77° W 10:28:57 10° S
Cosmos 2221 3.3 10:19:59 10° SSW 10:24:24 59° W 10:28:43 10° N
CZ-4B R/B 4.2 10:22:50 10° SE 10:25:34 20° E 10:28:28 10° NE
Cosmos 968 Rocket 3.9 10:22:25 10° SSW 10:27:44 71° WNW 10:32:56 10° N
SJ 16-02 2.8 10:25:31 10° SSE 10:28:28 17° ESE 10:31:02 11° E
Meteor 2-3 Rocket 3.7 10:23:25 10° N 10:29:02 84° E 10:34:48 10° S
Cosmos 1842 Rocket 4.0 10:25:01 10° SSW 10:29:29 69° W 10:33:52 10° N
SKYMED 2 4.4 10:28:11 10° N 10:32:29 55° W 10:36:51 10° SSW
GENESIS II 4.1 10:29:54 10° SW 10:33:40 86° WNW 10:37:22 10° NNE
USA 306 2.9 10:30:38 10° SW 10:34:51 64° SE 10:39:02 10° ENE
Cosmos 1802 Rocket 4.1 10:30:51 10° S 10:37:19 66° E 10:43:44 10° NNE
Cosmos 1459 Rocket 4.0 10:31:16 10° S 10:37:32 81° E 10:43:49 10° N
ERBS 3.7 10:36:20 10° SSW 10:38:42 19° SSE 10:39:17 18° SE
Cosmos 1503 Rocket 4.4 10:33:55 10° S 10:38:51 41° ESE 10:43:45 10° NE
RESURS DK-1 2.5 10:35:24 10° SSW 10:39:33 54° ESE 10:43:38 10° NE
USA 307 2.9 10:36:02 10° SW 10:40:15 62° SE 10:44:18 11° ENE
CZ-2C R/B 3.9 10:36:31 10° S 10:41:12 49° WSW 10:45:58 10° NW
Cosmos 1980 Rocket 2.1 10:41:11 10° SSW 10:46:51 79° ESE 10:52:29 10° NNE
CZ-2C R/B 2.8 10:44:22 10° NW 10:47:36 25° N 10:50:15 12° NE
USA 281 3.8 10:42:07 10° SE 10:48:15 37° ENE 10:54:18 10° N
Meteor 2-6 Rocket 4.5 10:43:23 10° S 10:48:44 43° ESE 10:53:55 10° NE
DELTA 2 R/B (1) 4.1 10:44:31 10° WNW 10:49:58 53° NNE 10:53:53 19° E
Cosmos 1862 3.6 10:46:46 10° NNE 10:50:33 44° E 10:54:06 12° SSE
Cosmos 2100 Rocket 4.3 10:44:27 10° S 10:50:47 74° W 10:56:58 10° N
ATLAS 2AS CENTAUR R/B 3.9 10:44:53 10° SW 10:51:44 50° WNW 10:58:57 10° N
Cosmos 1766 Rocket 4.4 10:51:41 10° NNE 10:55:23 28° E 10:56:28 25° ESE
Cosmos 2322 Rocket 3.3 10:51:58 10° S 10:56:20 22° SE 10:57:00 21° ESE
Aureole 1 Rocket 3.9 10:49:48 10° SSW 10:56:57 88° WNW 11:02:20 10° NNE
Cosmos 2082 Rocket 2.4 10:53:24 10° NNW 10:59:01 71° WSW 11:04:42 10° SSE
Meteor 1-31 Rocket 4.2 10:57:08 10° S 11:00:53 40° WSW 11:04:36 10° NW
H-2A R/B 2.0 10:57:50 10° SSE 11:02:43 52° E 11:07:32 10° N
Cosmos 2369 4.1 10:57:14 10° SSW 11:02:56 68° WNW 11:08:33 10° NNE
Lacrosse 5 3.1 10:59:05 10° SSW 11:03:16 24° SSE 11:04:26 22° SE
Cosmos 2084 3.7 10:58:32 10° NNW 11:03:20 75° NE 11:06:15 24° SE
Cosmos 1697 Rocket 4.3 10:59:05 10° SW 11:04:18 38° WNW 11:09:29 10° N
Cosmos 2151 4.1 11:01:50 10° NNW 11:06:01 46° WSW 11:10:14 10° S
Cosmos 2333 Rocket 4.2 11:05:30 10° SSE 11:06:04 11° SSE 11:06:04 11° SSE
USA 308 2.9 11:06:57 10° SW 11:11:12 80° NW 11:14:03 20° NE
ADEOS 3.6 11:08:10 10° SSE 11:13:29 83° WSW 11:18:45 10° NNW
NOAA 12 4.5 11:09:35 10° S 11:14:55 66° WSW 11:20:09 10° NNW
Cosmos 2123 Rocket 4.2 11:09:23 10° NNW 11:15:45 76° W 11:22:11 10° S
CORIOLIS 4.2 11:10:16 10° SSE 11:15:45 61° ENE 11:21:10 10° N
FengYun 1-2 T 4.4 11:12:30 10° S 11:18:06 73° WSW 11:23:35 10° NNW
Landsat 5 4.1 11:15:25 10° N 11:19:50 62° WNW 11:24:11 10° SSW
Cosmos 1725 Rocket 4.1 11:14:12 10° S 11:20:32 79° W 11:26:49 10° N
Cosmos 2061 Rocket 4.1 11:14:33 10° S 11:21:01 82° W 11:27:18 10° N
USA 215 3.2 11:15:58 16° ENE 11:21:25 76° SE 11:28:03 10° SW
AQUARIUS 4.1 11:18:24 19° SSE 11:21:42 72° ENE 11:26:12 10° N
IRIDIUM 103 4.4 11:19:06 10° NNE 11:24:11 54° E 11:29:21 10° SSE
SAR-Lupe-3 4.4 11:23:59 59° SE 11:24:30 72° ENE 11:28:08 10° N
USA 305 3.9 11:28:12 10° WSW 11:32:14 43° NW 11:35:00 18° NNE
NOAA 6 3.9 11:30:47 20° SSE 11:34:28 78° ENE 11:39:37 10° N
Lacrosse 5 rocket 3.3 11:33:16 10° SSW 11:34:42 16° S 11:34:42 16° S
SL-16 R/B 2.2 11:32:30 10° SSW 11:38:09 56° ESE 11:39:16 48° ENE
Cosmos 1777 Rocket 3.8 11:35:53 10° SSW 11:41:11 73° ESE 11:43:42 31° NNE
GEOS 3 Rocket 4.1 11:42:22 41° NE 11:42:22 41° NE 11:46:53 10° N
IRIDIUM 106 4.2 11:37:12 10° N 11:42:27 79° E 11:47:46 10° S
SMAP 3.6 11:40:06 12° S 11:44:25 58° WSW 11:49:01 10° NNW
Cosmos 1151 Rocket 3.4 11:41:42 10° SSW 11:46:07 66° W 11:50:26 10° N
Cosmos 1354 Rocket 4.4 11:42:36 10° SSW 11:47:50 62° WNW 11:53:00 10° N
CZ-2D R/B 4.2 11:50:59 33° SSW 11:52:12 45° WSW 11:55:53 10° NW
ATLAS CENTAUR R/B 4.0 11:52:46 10° NNW 11:54:08 16° N 11:54:08 16° N
